Location: Great Snoring
(52.8667°N, 0.8833°E)
Time: 14:59:30
(UTC+00:00)

Cosmos 1076 Rocket - Pass Details

Date: 19 May 2025
Orbit: 583 x 604 km, 82.5° (Epoch: 17 June)

Event Time Altitude Azimuth Distance (km) Brightness Sun altitude
Rises 20:27:13 0° 348° (NNW) 2,870 8.0 -4.7°
Reaches altitude 10° 20:29:26 10° 347° (NNW) 1,963 7.1 -4.9°
Maximum altitude 20:33:47 78° 262° (W) 625 3.7 -5.4°
Drops below altitude 10° 20:38:05 10° 176° (S) 1,949 5.7 -5.9°
Enters shadow 20:40:11 - 175° (S) 2,805 6.5 -6.1°
